WetterOnline ( http://www.wetteronline.de )

Wetter aktuell Bad Salzuflen

Aktuelles Wetter: Bad Salzuflen (139m)

6-stündlich | Neueste Meldungen
Ortszeit Temperatur Wetter
Di, 20.02. 19:00 0.8° C wolkig
Di, 20.02. 13:00 3.5° C wolkenlos
Di, 20.02. 7:00 -2.9° C wolkenlos
Di, 20.02. 1:00 -0.9° C bedeckt
Mo, 19.02. 19:00 1.2° C fast wolkenlos
Mo, 19.02. 13:00 2.8° C bewölkt
Mo, 19.02. 7:00 -0.6° C bedeckt
Mo, 19.02. 1:00 1.0° C bedeckt
Ortszeit Temperatur Wetter
Mi, 21.02. 0:00 -1.8° C fast wolkenlos
Di, 20.02. 23:50 -1.8° C fast wolkenlos
Di, 20.02. 23:40 -1.5° C wolkenlos
Di, 20.02. 23:30 -1.2° C wolkenlos
Di, 20.02. 23:20 -1.2° C wolkenlos
Di, 20.02. 23:10 -1.0° C fast wolkenlos
Di, 20.02. 23:00 -0.7° C leicht bewölkt
Di, 20.02. 22:30 -0.9° C wolkenlos
Di, 20.02. 22:00 -0.6° C fast wolkenlos
Di, 20.02. 21:30 -0.5° C wolkenlos
Di, 20.02. 21:00 -0.1° C leicht bewölkt
Ortszeit Relative Feuchte Sichtweite
Di, 20.02. 19:00 70% 5.0 km
Di, 20.02. 13:00 55% 10 km
Di, 20.02. 7:00 90% 4.3 km
Di, 20.02. 1:00 82% 7 km
Mo, 19.02. 19:00 72% 8 km
Mo, 19.02. 13:00 65% 10 km
Mo, 19.02. 7:00 80% 8 km
Mo, 19.02. 1:00 71% 14 km
Ortszeit Relative Feuchte Sichtweite
Mi, 21.02. 0:00 82% 3.0 km
Di, 20.02. 23:50 82% -
Di, 20.02. 23:40 81% -
Di, 20.02. 23:30 79% 3.5 km
Di, 20.02. 23:20 79% -
Di, 20.02. 23:10 78% -
Di, 20.02. 23:00 77% 3.9 km
Di, 20.02. 22:30 78% 3.9 km
Di, 20.02. 22:00 76% 4.3 km
Di, 20.02. 21:30 77% 4.5 km
Di, 20.02. 21:00 75% 4.9 km
Ortszeit Niederschlagsmenge Niederschlagsart
Di, 20.02. 19:00 0.0 l/m2 in 12 Std. -
Di, 20.02. 13:00 0.0 l/m2 in 6 Std. -
Di, 20.02. 7:00 0.0 l/m2 in 12 Std. -
Di, 20.02. 1:00 0.0 l/m2 in 6 Std. -
Mo, 19.02. 19:00 0.0 l/m2 in 12 Std. -
Mo, 19.02. 13:00 0.0 l/m2 in 6 Std. -
Mo, 19.02. 7:00 0.0 l/m2 in 12 Std. -
Mo, 19.02. 1:00 0.0 l/m2 in 6 Std. -
Ortszeit Niederschlagsmenge Niederschlagsart
Mi, 21.02. 0:00 0.0 l/m2 in 1 Std. -
Di, 20.02. 23:50 keine Meldung -
Di, 20.02. 23:40 keine Meldung -
Di, 20.02. 23:30 0.0 l/m2 in 1 Std. -
Di, 20.02. 23:20 keine Meldung -
Di, 20.02. 23:10 keine Meldung -
Di, 20.02. 23:00 0.0 l/m2 in 1 Std. -
Di, 20.02. 22:30 0.0 l/m2 in 1 Std. -
Di, 20.02. 22:00 0.0 l/m2 in 1 Std. -
Di, 20.02. 21:30 0.0 l/m2 in 1 Std. -
Di, 20.02. 21:00 0.0 l/m2 in 1 Std. -
Ortszeit Stärke Spitze Richtung
km/h Bft. km/h Grad Sektor
Di, 20.02. 19:00 4 1 25 60° NO
Di, 20.02. 13:00 9 2 19 60° NO
Di, 20.02. 7:00 0 0 7 - -
Di, 20.02. 1:00 6 1 7 30° NO
Mo, 19.02. 19:00 4 1 11 70° O
Mo, 19.02. 13:00 6 1 17 170° S
Mo, 19.02. 7:00 6 1 11 190° S
Mo, 19.02. 1:00 4 1 18 220° SW
Ortszeit Stärke Spitze Richtung
km/h Bft. km/h Grad Sektor
Mi, 21.02. 0:00 4 1 11 40° NO
Di, 20.02. 23:50 4 1 - 40° NO
Di, 20.02. 23:40 6 1 - 30° NO
Di, 20.02. 23:30 6 1 9 10° N
Di, 20.02. 23:20 6 1 - 10° N
Di, 20.02. 23:10 7 2 - 10° N
Di, 20.02. 23:00 6 1 11 20° N
Di, 20.02. 22:30 7 2 11 50° NO
Di, 20.02. 22:00 6 1 13 70° O
Di, 20.02. 21:30 4 1 14 60° NO
Di, 20.02. 21:00 6 1 17 80° O
Ortszeit Untergrenze Bedeckung Gattung
total tief tief mittel hoch
Di, 20.02. 19:00 1020 m 6/8 6/8 - - -
Di, 20.02. 13:00 - 0/8 0/8 - - -
Di, 20.02. 7:00 2700 m 0/8 0/8 - - -
Di, 20.02. 1:00 2700 m 8/8 8/8 - - -
Mo, 19.02. 19:00 2700 m 1/8 1/8 - - -
Mo, 19.02. 13:00 2700 m 8/8 4/8 - - -
Mo, 19.02. 7:00 3000 m 8/8 8/8 - - -
Mo, 19.02. 1:00 4200 m 8/8 8/8 - - -
Ortszeit Bedeckungsgrad in Achtel und Wolkenuntergrenze
Mi, 21.02. 0:00 1(1020m)
Di, 20.02. 23:50 1(1020m)
Di, 20.02. 23:40 keine Wolken
Di, 20.02. 23:30 keine Wolken
Di, 20.02. 23:20 keine Wolken
Di, 20.02. 23:10 1(990m)
Di, 20.02. 23:00 2(990m)
Di, 20.02. 22:30 keine Wolken
Di, 20.02. 22:00 1(960m)
Di, 20.02. 21:30 1(960m)
Di, 20.02. 21:00 2(870m)
Ortszeit Luftdruck NN (hPa) Tendenz (hPa in 3 Std.)
Di, 20.02. 19:00 1021 + 1,4
Di, 20.02. 13:00 1019 + 0,1
Di, 20.02. 7:00 1019 + 0,3
Di, 20.02. 1:00 1019 0,0
Mo, 19.02. 19:00 1019 - 0,3
Mo, 19.02. 13:00 1020 - 1,2
Mo, 19.02. 7:00 1022 - 0,9
Mo, 19.02. 1:00 1025 - 0,6
Ortszeit Luftdruck NN (hPa) Tendenz (hPa in 3 Std.)
Mi, 21.02. 0:00 1024 + 1,4
Di, 20.02. 23:50 1024 keine Meldung
Di, 20.02. 23:40 1024 keine Meldung
Di, 20.02. 23:30 1024 + 1,4
Di, 20.02. 23:20 1024 keine Meldung
Di, 20.02. 23:10 1024 keine Meldung
Di, 20.02. 23:00 1023 + 1,2
Di, 20.02. 22:30 1023 + 1,3
Di, 20.02. 22:00 1023 + 1,6
Di, 20.02. 21:30 1023 + 1,9
Di, 20.02. 21:00 1023 + 1,9
Ortszeit Schneehöhe (cm)
Di, 20.02. 19:00 0
Di, 20.02. 13:00 0
Di, 20.02. 7:00 0
Di, 20.02. 1:00 0
Mo, 19.02. 19:00 0
Mo, 19.02. 13:00 0
Mo, 19.02. 7:00 0
Mo, 19.02. 1:00 0
Ortszeit Schneehöhe (cm)
Mi, 21.02. 0:00 0
Di, 20.02. 23:50 0
Di, 20.02. 23:40 0
Di, 20.02. 23:30 0
Di, 20.02. 23:20 0
Di, 20.02. 23:10 0
Di, 20.02. 23:00 0
Di, 20.02. 22:30 0
Di, 20.02. 22:00 0
Di, 20.02. 21:30 0
Di, 20.02. 21:00 0
Link zu dieser Seite / Seite empfehlen

Das Wetter in ...